Tracking 19827 objects as of 22-Aug-2019
HD Live streaming from Space Station
objects crossing your sky now

FENGYUN 1C DEB

Track FENGYUN 1C DEB now!
10-day predictions


NORAD ID: 30360
Int'l Code: 1999-025ABX
Perigee: 829.7 km
Apogee: 880.4 km
Inclination: 98.9 °
Period: 101.9 minutes
Semi major axis: 7226 km
RCS: 0.0134 m2 (small)
Launch date: May 10, 1999
Source: People's Republic of China (PRC)
Launch site: Taiyaun Space Center, China (TSC)

Note: This is SATELLITE DEBRIS
aabbcc
Your satellite tracking list
Your tracking list is empty




NASA's NSSDC Master Catalog

Two Line Element Set (TLE):
1 30360U 99025ABX 19233.06617885  .00000298  00000-0  18184-3 0  9990
2 30360  98.9429 280.5134 0035057 247.0922 142.5427 14.13362085647762
Source of the keplerian elements: AFSPC